SXS2XN LOWW-LTAC

Flight info

Callsign SXS2XN
Flight time 2h 9m
Altitude 37000
Route ADAMA DCT VEDER DCT ALAMU DCT EPARI DCT DEGET DCT BULEN DCT RIXEN UA17 YAVRU
Aircraft B738/M-SDE2E3FGHIRWXY/LB1

Departure

Time 2026-05-07 06:53
Airport Vienna International Airport (LOWW)

Arrival

Time 2026-05-07 09:02
Airport Esenboğa International Airport (LTAC)
Time Latitude Longitude Altitude Speed Heading
2026-05-07 06:24 48.11760 16.56625 601 ft 0 kts 27°
2026-05-07 06:43 48.11758 16.56623 601 ft 1 kts 27°
2026-05-07 06:43 48.11743 16.56612 602 ft 3 kts 25°
2026-05-07 06:44 48.11726 16.56600 602 ft 3 kts 29°
2026-05-07 06:44 48.11710 16.56583 603 ft 3 kts 51°
2026-05-07 06:44 48.11701 16.56559 619 ft 3 kts 86°
2026-05-07 06:44 48.11703 16.56537 619 ft 1 kts 116°
2026-05-07 06:45 48.11704 16.56535 619 ft 1 kts 117°
2026-05-07 06:46 48.11703 16.56537 620 ft 1 kts 117°
2026-05-07 06:47 48.11694 16.56564 619 ft 4 kts 117°
2026-05-07 06:47 48.11680 16.56605 610 ft 4 kts 115°
2026-05-07 06:47 48.11667 16.56648 614 ft 5 kts 115°
2026-05-07 06:47 48.11649 16.56705 613 ft 7 kts 115°
2026-05-07 06:48 48.11623 16.56777 620 ft 8 kts 121°
2026-05-07 06:48 48.11600 16.56850 611 ft 8 kts 114°
2026-05-07 06:48 48.11568 16.56952 610 ft 15 kts 115°
2026-05-07 06:48 48.11513 16.57121 609 ft 20 kts 116°
2026-05-07 06:49 48.11453 16.57303 621 ft 19 kts 115°
2026-05-07 06:49 48.11376 16.57379 618 ft 15 kts 204°
2026-05-07 06:49 48.11285 16.57349 626 ft 14 kts 142°
2026-05-07 06:49 48.11235 16.57480 621 ft 16 kts 116°
2026-05-07 06:50 48.11161 16.57601 619 ft 17 kts 179°
2026-05-07 06:50 48.11068 16.57649 618 ft 8 kts 165°
2026-05-07 06:50 48.11030 16.57637 616 ft 0 kts 202°
2026-05-07 06:51 48.11010 16.57623 617 ft 7 kts 205°
2026-05-07 06:51 48.10952 16.57572 622 ft 13 kts 217°
2026-05-07 06:51 48.10936 16.57469 620 ft 0 kts 292°
2026-05-07 06:52 48.10936 16.57468 620 ft 1 kts 292°
2026-05-07 06:52 48.10979 16.57334 626 ft 44 kts 296°
2026-05-07 06:53 48.11220 16.56595 628 ft 111 kts 296°
2026-05-07 06:53 48.11646 16.55314 701 ft 157 kts 297°
2026-05-07 06:53 48.12147 16.53818 1390 ft 161 kts 295°
2026-05-07 06:53 48.12464 16.52258 2238 ft 157 kts 268°
2026-05-07 06:54 48.12056 16.50655 2765 ft 187 kts 233°
2026-05-07 06:54 48.10873 16.49507 2985 ft 219 kts 207°
2026-05-07 06:54 48.09436 16.48465 3329 ft 236 kts 208°
2026-05-07 06:54 48.07858 16.47429 3657 ft 259 kts 194°
2026-05-07 06:55 48.06037 16.47430 4411 ft 265 kts 172°
2026-05-07 06:55 48.04218 16.47825 5347 ft 265 kts 172°
2026-05-07 06:55 48.02381 16.48195 6172 ft 268 kts 172°
2026-05-07 06:55 48.00522 16.48554 6991 ft 270 kts 173°
2026-05-07 06:56 47.98655 16.48907 7837 ft 271 kts 174°
2026-05-07 06:56 47.96838 16.49642 8634 ft 276 kts 152°
2026-05-07 06:56 47.95410 16.51595 9431 ft 286 kts 126°
2026-05-07 06:56 47.94699 16.54411 10117 ft 300 kts 98°
2026-05-07 06:57 47.94935 16.57605 10426 ft 326 kts 75°
2026-05-07 06:57 47.95699 16.60909 10631 ft 348 kts 71°
2026-05-07 06:57 47.96559 16.64359 11106 ft 360 kts 71°
2026-05-07 06:57 47.97425 16.67899 11749 ft 365 kts 72°
2026-05-07 06:58 47.98272 16.71496 12461 ft 369 kts 72°
2026-05-07 06:58 47.99112 16.75140 13146 ft 374 kts 72°
2026-05-07 06:58 47.99839 16.78880 13794 ft 377 kts 83°
2026-05-07 06:58 48.00095 16.82782 14414 ft 379 kts 89°
2026-05-07 06:59 48.00251 16.86728 15036 ft 383 kts 90°
2026-05-07 06:59 48.00419 16.90716 15630 ft 387 kts 89°
2026-05-07 06:59 48.00622 16.94748 16233 ft 392 kts 89°
2026-05-07 06:59 48.00846 16.98822 16841 ft 396 kts 89°
2026-05-07 07:00 48.01076 17.02937 17446 ft 399 kts 90°
2026-05-07 07:00 48.01060 17.07077 18025 ft 399 kts 99°
2026-05-07 07:00 48.00741 17.11198 18578 ft 401 kts 103°
2026-05-07 07:00 48.00351 17.15272 19130 ft 402 kts 103°
2026-05-07 07:01 47.99958 17.19477 19700 ft 405 kts 103°
2026-05-07 07:01 47.99720 17.22245 20057 ft 407 kts 102°
2026-05-07 07:01 47.99384 17.26439 20658 ft 407 kts 102°
2026-05-07 07:01 47.99059 17.30659 21150 ft 411 kts 102°
2026-05-07 07:02 47.98489 17.36268 21744 ft 412 kts 110°
2026-05-07 07:02 47.97650 17.40344 22272 ft 411 kts 114°
2026-05-07 07:02 47.97019 17.43070 22616 ft 412 kts 115°
2026-05-07 07:02 47.96062 17.47110 23131 ft 414 kts 115°
2026-05-07 07:03 47.95109 17.51167 23624 ft 416 kts 115°
2026-05-07 07:03 47.94167 17.55267 24017 ft 419 kts 115°
2026-05-07 07:03 47.93235 17.59393 24408 ft 422 kts 114°
2026-05-07 07:03 47.92307 17.63553 24778 ft 424 kts 114°
2026-05-07 07:04 47.91378 17.67742 25140 ft 427 kts 114°
2026-05-07 07:04 47.90443 17.71957 25519 ft 429 kts 114°
2026-05-07 07:04 47.89503 17.76190 25909 ft 431 kts 114°
2026-05-07 07:04 47.88556 17.80442 26284 ft 433 kts 114°
2026-05-07 07:05 47.87603 17.84709 26648 ft 436 kts 114°
2026-05-07 07:05 47.86642 17.89003 27006 ft 438 kts 114°
2026-05-07 07:05 47.85677 17.93308 27357 ft 440 kts 114°
2026-05-07 07:05 47.84713 17.97579 27701 ft 441 kts 114°
2026-05-07 07:06 47.83578 18.01812 28006 ft 440 kts 119°
2026-05-07 07:06 47.82287 18.05938 28360 ft 440 kts 121°
2026-05-07 07:06 47.80954 18.10044 28702 ft 442 kts 121°
2026-05-07 07:06 47.79619 18.14172 29018 ft 444 kts 121°
2026-05-07 07:07 47.78295 18.18332 29335 ft 446 kts 120°
2026-05-07 07:07 47.76981 18.22519 29653 ft 448 kts 120°
2026-05-07 07:07 47.75668 18.26718 29954 ft 449 kts 120°
2026-05-07 07:07 47.74381 18.30970 30198 ft 454 kts 116°
2026-05-07 07:08 47.73454 18.35500 30394 ft 463 kts 106°
2026-05-07 07:08 47.72998 18.40267 30586 ft 469 kts 101°
2026-05-07 07:08 47.72662 18.45099 30812 ft 471 kts 100°
2026-05-07 07:08 47.72337 18.49945 31067 ft 472 kts 100°
2026-05-07 07:09 47.72001 18.54778 31417 ft 470 kts 100°
2026-05-07 07:09 47.71645 18.59612 31671 ft 471 kts 101°
2026-05-07 07:09 47.71273 18.64456 31888 ft 473 kts 101°
2026-05-07 07:09 47.70891 18.69303 32173 ft 473 kts 101°
2026-05-07 07:10 47.70506 18.74140 32500 ft 471 kts 101°
2026-05-07 07:10 47.70119 18.78976 32721 ft 473 kts 101°
2026-05-07 07:10 47.69730 18.83828 32948 ft 473 kts 101°
2026-05-07 07:10 47.69341 18.88673 33277 ft 472 kts 101°
2026-05-07 07:11 47.68827 18.93459 33526 ft 468 kts 109°
2026-05-07 07:11 47.67812 18.98029 33682 ft 465 kts 118°
2026-05-07 07:11 47.66375 19.02291 33909 ft 459 kts 127°
2026-05-07 07:11 47.64568 19.06143 34133 ft 454 kts 132°
2026-05-07 07:12 47.62668 19.09877 34381 ft 453 kts 133°
2026-05-07 07:12 47.60762 19.13587 34610 ft 453 kts 133°
2026-05-07 07:12 47.58857 19.17299 34804 ft 453 kts 133°
2026-05-07 07:12 47.56954 19.21025 34992 ft 453 kts 132°
2026-05-07 07:13 47.55057 19.24755 35194 ft 454 kts 132°
2026-05-07 07:13 47.53167 19.28488 35438 ft 453 kts 132°
2026-05-07 07:13 47.51283 19.32211 35669 ft 452 kts 132°
2026-05-07 07:13 47.49401 19.35933 35869 ft 452 kts 132°
2026-05-07 07:14 47.47519 19.39650 36056 ft 452 kts 132°
2026-05-07 07:14 47.45636 19.43363 36248 ft 452 kts 132°
2026-05-07 07:14 47.43749 19.47078 36436 ft 451 kts 132°
2026-05-07 07:14 47.41867 19.50778 36595 ft 451 kts 132°
2026-05-07 07:15 47.38074 19.58217 36784 ft 455 kts 132°
2026-05-07 07:15 47.36173 19.61939 36978 ft 454 kts 132°
2026-05-07 07:15 47.34288 19.65623 36951 ft 456 kts 132°
2026-05-07 07:16 47.30478 19.73060 36955 ft 453 kts 132°
2026-05-07 07:16 47.26695 19.80427 36961 ft 449 kts 132°
2026-05-07 07:17 47.22933 19.87727 36974 ft 446 kts 132°
2026-05-07 07:17 47.19165 19.95016 36994 ft 450 kts 132°
2026-05-07 07:18 47.15343 20.02388 37001 ft 456 kts 132°
2026-05-07 07:18 47.11481 20.09822 36999 ft 459 kts 132°
2026-05-07 07:19 47.07592 20.17293 36966 ft 461 kts 131°
2026-05-07 07:19 47.03686 20.24776 36979 ft 462 kts 131°
2026-05-07 07:20 46.99775 20.32246 36976 ft 462 kts 131°
2026-05-07 07:20 46.95871 20.39684 36981 ft 459 kts 131°
2026-05-07 07:21 46.91980 20.47076 36978 ft 457 kts 131°
2026-05-07 07:21 46.88110 20.54408 36985 ft 454 kts 132°
2026-05-07 07:22 46.84250 20.61699 36980 ft 453 kts 132°
2026-05-07 07:22 46.80399 20.68957 37005 ft 451 kts 132°
2026-05-07 07:23 46.76541 20.76205 36980 ft 453 kts 131°
2026-05-07 07:23 46.72683 20.83437 36984 ft 451 kts 131°
2026-05-07 07:24 46.68828 20.90648 36997 ft 450 kts 132°
2026-05-07 07:24 46.64973 20.97837 37011 ft 451 kts 132°
2026-05-07 07:25 46.59183 21.08598 36983 ft 454 kts 132°
2026-05-07 07:26 46.55286 21.15822 37005 ft 455 kts 132°
2026-05-07 07:26 46.51376 21.23053 37017 ft 456 kts 132°
2026-05-07 07:27 46.47435 21.30281 37014 ft 457 kts 133°
2026-05-07 07:27 46.43426 21.37468 37020 ft 459 kts 133°
2026-05-07 07:28 46.39394 21.44659 37015 ft 460 kts 132°
2026-05-07 07:28 46.35366 21.51842 37025 ft 459 kts 133°
2026-05-07 07:29 46.31334 21.59025 37025 ft 461 kts 133°
2026-05-07 07:29 46.27292 21.66213 37027 ft 460 kts 133°
2026-05-07 07:30 46.23255 21.73370 37012 ft 459 kts 132°
2026-05-07 07:30 46.19253 21.80451 37028 ft 457 kts 132°
2026-05-07 07:31 46.15229 21.87549 37028 ft 456 kts 133°
2026-05-07 07:31 46.11208 21.94625 37015 ft 455 kts 133°
2026-05-07 07:32 46.07196 22.01665 37026 ft 453 kts 132°
2026-05-07 07:32 46.03194 22.08671 37025 ft 453 kts 132°
2026-05-07 07:33 45.99186 22.15669 37033 ft 454 kts 133°
2026-05-07 07:33 45.95159 22.22682 37027 ft 455 kts 133°
2026-05-07 07:34 45.91123 22.29694 37028 ft 455 kts 132°
2026-05-07 07:34 45.87086 22.36692 37029 ft 455 kts 132°
2026-05-07 07:35 45.83045 22.43679 37039 ft 455 kts 132°
2026-05-07 07:35 45.78995 22.50662 37030 ft 456 kts 132°
2026-05-07 07:36 45.74936 22.57643 37026 ft 455 kts 132°
2026-05-07 07:36 45.70880 22.64603 37033 ft 455 kts 132°
2026-05-07 07:37 45.66818 22.71556 37034 ft 455 kts 132°
2026-05-07 07:37 45.62753 22.78496 37047 ft 455 kts 132°
2026-05-07 07:38 45.58681 22.85431 37030 ft 456 kts 132°
2026-05-07 07:38 45.54632 22.92311 37044 ft 455 kts 132°
2026-05-07 07:39 45.50553 22.99222 37051 ft 456 kts 132°
2026-05-07 07:39 45.46465 23.06132 37057 ft 456 kts 132°
2026-05-07 07:40 45.42370 23.13038 37061 ft 456 kts 132°
2026-05-07 07:40 45.38267 23.19941 37062 ft 457 kts 132°
2026-05-07 07:41 45.34157 23.26837 37068 ft 457 kts 132°
2026-05-07 07:41 45.30039 23.33730 37079 ft 458 kts 132°
2026-05-07 07:42 45.25905 23.40633 37066 ft 459 kts 133°
2026-05-07 07:42 45.21765 23.47530 37065 ft 460 kts 133°
2026-05-07 07:43 45.17622 23.54413 37076 ft 459 kts 133°
2026-05-07 07:43 45.13480 23.61279 37070 ft 458 kts 133°
2026-05-07 07:44 45.09342 23.68122 37065 ft 457 kts 133°
2026-05-07 07:44 45.05204 23.74946 37076 ft 457 kts 133°
2026-05-07 07:45 45.01067 23.81754 37076 ft 456 kts 133°
2026-05-07 07:45 44.96927 23.88551 37069 ft 456 kts 133°
2026-05-07 07:46 44.92814 23.95285 37071 ft 456 kts 133°
2026-05-07 07:46 44.88668 24.02058 37070 ft 456 kts 133°
2026-05-07 07:47 44.84511 24.08831 37071 ft 457 kts 133°
2026-05-07 07:47 44.80339 24.15614 37065 ft 458 kts 133°
2026-05-07 07:48 44.76151 24.22407 37065 ft 460 kts 133°
2026-05-07 07:48 44.71951 24.29202 37063 ft 461 kts 133°
2026-05-07 07:49 44.67738 24.36002 37064 ft 462 kts 133°
2026-05-07 07:49 44.63508 24.42813 37065 ft 463 kts 133°
2026-05-07 07:50 44.59982 24.48478 37061 ft 464 kts 133°
2026-05-07 07:50 44.55728 24.55297 37061 ft 465 kts 133°
2026-05-07 07:51 44.51463 24.62118 37065 ft 465 kts 133°
2026-05-07 07:51 44.47191 24.68933 37065 ft 466 kts 133°
2026-05-07 07:52 44.42906 24.75752 37052 ft 467 kts 133°
2026-05-07 07:52 44.38616 24.82564 37056 ft 467 kts 133°
2026-05-07 07:53 44.34319 24.89371 37059 ft 467 kts 133°
2026-05-07 07:53 44.30019 24.96165 37059 ft 467 kts 133°
2026-05-07 07:54 44.25715 25.02948 37049 ft 467 kts 133°
2026-05-07 07:54 44.21409 25.09720 37060 ft 467 kts 133°
2026-05-07 07:55 44.17094 25.16488 37054 ft 467 kts 133°
2026-05-07 07:55 44.12778 25.23244 37057 ft 467 kts 133°
2026-05-07 07:56 44.08454 25.29995 37045 ft 468 kts 133°
2026-05-07 07:56 44.04118 25.36748 37054 ft 468 kts 133°
2026-05-07 07:57 43.99778 25.43492 37052 ft 468 kts 133°
2026-05-07 07:57 43.95429 25.50234 37051 ft 469 kts 133°
2026-05-07 07:58 43.91068 25.56979 37044 ft 470 kts 133°
2026-05-07 07:58 43.86726 25.63679 37052 ft 470 kts 133°
2026-05-07 07:59 43.82347 25.70420 37047 ft 471 kts 133°
2026-05-07 07:59 43.77959 25.77163 37051 ft 472 kts 133°
2026-05-07 08:00 43.73643 25.84016 37049 ft 473 kts 129°
2026-05-07 08:00 43.69688 25.91302 37056 ft 474 kts 127°
2026-05-07 08:01 43.65790 25.98666 37055 ft 475 kts 127°
2026-05-07 08:01 43.61859 26.06007 37054 ft 476 kts 127°
2026-05-07 08:02 43.57894 26.13329 37056 ft 476 kts 127°
2026-05-07 08:02 43.53914 26.20636 37053 ft 476 kts 127°
2026-05-07 08:03 43.49932 26.27928 37058 ft 476 kts 127°
2026-05-07 08:03 43.45973 26.35164 37055 ft 476 kts 127°
2026-05-07 08:04 43.41989 26.42428 37063 ft 475 kts 127°
2026-05-07 08:04 43.38006 26.49674 37056 ft 474 kts 128°
2026-05-07 08:05 43.34030 26.56890 37072 ft 474 kts 127°
2026-05-07 08:05 43.30048 26.64097 37078 ft 473 kts 127°
2026-05-07 08:06 43.26066 26.71288 37083 ft 473 kts 127°
2026-05-07 08:06 43.22079 26.78469 37079 ft 473 kts 127°
2026-05-07 08:07 43.18086 26.85644 37094 ft 473 kts 127°
2026-05-07 08:07 43.14089 26.92809 37094 ft 474 kts 127°
2026-05-07 08:08 43.10085 26.99969 37097 ft 474 kts 127°
2026-05-07 08:08 43.06071 27.07129 37112 ft 474 kts 127°
2026-05-07 08:09 43.02055 27.14277 37095 ft 475 kts 127°
2026-05-07 08:09 42.98055 27.21378 37117 ft 474 kts 127°
2026-05-07 08:10 42.94027 27.28512 37114 ft 475 kts 127°
2026-05-07 08:10 42.89991 27.35643 37132 ft 475 kts 127°
2026-05-07 08:11 42.85947 27.42771 37127 ft 475 kts 127°
2026-05-07 08:11 42.81896 27.49893 37121 ft 476 kts 127°
2026-05-07 08:12 42.77839 27.57011 37138 ft 475 kts 127°
2026-05-07 08:12 42.73787 27.64102 37129 ft 475 kts 127°
2026-05-07 08:13 42.69729 27.71185 37136 ft 475 kts 127°
2026-05-07 08:13 42.65667 27.78259 37119 ft 475 kts 127°
2026-05-07 08:14 42.61606 27.85316 37141 ft 474 kts 127°
2026-05-07 08:14 42.57538 27.92366 37140 ft 475 kts 127°
2026-05-07 08:15 42.53462 27.99416 37144 ft 475 kts 128°
2026-05-07 08:15 42.49384 28.06451 37158 ft 475 kts 128°
2026-05-07 08:16 42.45300 28.13480 37147 ft 475 kts 128°
2026-05-07 08:16 42.41212 28.20500 37141 ft 475 kts 128°
2026-05-07 08:17 42.37123 28.27504 37140 ft 474 kts 128°
2026-05-07 08:17 42.33028 28.34503 37151 ft 474 kts 128°
2026-05-07 08:18 42.28937 28.41480 37142 ft 473 kts 128°
2026-05-07 08:18 42.24849 28.48435 37149 ft 473 kts 128°
2026-05-07 08:19 42.20757 28.55380 37151 ft 473 kts 128°
2026-05-07 08:19 42.16664 28.62311 37149 ft 472 kts 128°
2026-05-07 08:20 42.12565 28.69239 37146 ft 473 kts 128°
2026-05-07 08:20 42.08465 28.76158 37148 ft 473 kts 127°
2026-05-07 08:21 42.04784 28.83478 37158 ft 472 kts 121°
2026-05-07 08:21 42.01365 28.90961 37151 ft 473 kts 120°
2026-05-07 08:22 41.97884 28.98535 37151 ft 473 kts 121°
2026-05-07 08:22 41.94405 29.05968 37160 ft 473 kts 121°
2026-05-07 08:23 41.90874 29.13442 37160 ft 474 kts 121°
2026-05-07 08:23 41.87336 29.20903 37149 ft 474 kts 121°
2026-05-07 08:24 41.83795 29.28356 37160 ft 474 kts 121°
2026-05-07 08:24 41.80248 29.35806 37151 ft 474 kts 121°
2026-05-07 08:25 41.76693 29.43257 37158 ft 475 kts 121°
2026-05-07 08:25 41.73129 29.50707 37151 ft 475 kts 121°
2026-05-07 08:26 41.67777 29.61860 37146 ft 475 kts 121°
2026-05-07 08:26 41.64200 29.69292 37155 ft 475 kts 121°
2026-05-07 08:27 41.60617 29.76719 37152 ft 475 kts 121°
2026-05-07 08:27 41.57052 29.84089 37158 ft 476 kts 121°
2026-05-07 08:28 41.53456 29.91507 37157 ft 476 kts 121°
2026-05-07 08:28 41.49856 29.98914 37157 ft 476 kts 121°
2026-05-07 08:29 41.46247 30.06319 37172 ft 476 kts 121°
2026-05-07 08:29 41.42634 30.13718 37146 ft 476 kts 121°
2026-05-07 08:30 41.39018 30.21105 37159 ft 476 kts 121°
2026-05-07 08:30 41.35397 30.28483 37163 ft 476 kts 121°
2026-05-07 08:31 41.31771 30.35854 37162 ft 476 kts 121°
2026-05-07 08:31 41.28134 30.43230 37159 ft 476 kts 121°
2026-05-07 08:32 41.24505 30.50570 37159 ft 476 kts 121°
2026-05-07 08:32 41.20860 30.57926 37164 ft 477 kts 121°
2026-05-07 08:33 41.17209 30.65277 37157 ft 477 kts 121°
2026-05-07 08:33 41.13555 30.72618 37157 ft 476 kts 121°
2026-05-07 08:34 41.11740 30.76255 36986 ft 469 kts 121°
2026-05-07 08:34 41.09945 30.79849 36463 ft 467 kts 121°
2026-05-07 08:34 41.08142 30.83458 35717 ft 472 kts 121°
2026-05-07 08:34 41.06313 30.87116 34906 ft 480 kts 120°
2026-05-07 08:35 41.04459 30.90820 34129 ft 486 kts 120°
2026-05-07 08:35 41.02589 30.94549 33575 ft 484 kts 120°
2026-05-07 08:35 41.00733 30.98239 33094 ft 479 kts 120°
2026-05-07 08:35 40.98890 31.01913 32626 ft 480 kts 120°
2026-05-07 08:36 40.97069 31.05583 32168 ft 487 kts 120°
2026-05-07 08:36 40.95209 31.09356 31731 ft 493 kts 120°
2026-05-07 08:36 40.93331 31.13162 31268 ft 494 kts 120°
2026-05-07 08:36 40.91451 31.16965 30844 ft 495 kts 120°
2026-05-07 08:37 40.89564 31.20772 30413 ft 495 kts 120°
2026-05-07 08:37 40.87672 31.24579 29945 ft 496 kts 120°
2026-05-07 08:37 40.85777 31.28389 29456 ft 495 kts 120°
2026-05-07 08:37 40.83888 31.32181 28951 ft 494 kts 121°
2026-05-07 08:38 40.81998 31.35968 28482 ft 493 kts 121°
2026-05-07 08:38 40.80114 31.39740 28004 ft 491 kts 121°
2026-05-07 08:38 40.78234 31.43499 27531 ft 490 kts 121°
2026-05-07 08:38 40.76362 31.47240 27076 ft 489 kts 121°
2026-05-07 08:39 40.75122 31.49715 26774 ft 488 kts 121°
2026-05-07 08:39 40.73251 31.53446 26344 ft 487 kts 121°
2026-05-07 08:39 40.71362 31.57207 25902 ft 485 kts 122°
2026-05-07 08:39 40.69522 31.60869 25464 ft 484 kts 122°
2026-05-07 08:40 40.67667 31.64553 25067 ft 482 kts 122°
2026-05-07 08:40 40.65815 31.68228 24671 ft 480 kts 122°
2026-05-07 08:40 40.63973 31.71881 24263 ft 477 kts 122°
2026-05-07 08:40 40.62145 31.75503 23888 ft 473 kts 122°
2026-05-07 08:41 40.60329 31.79094 23437 ft 469 kts 122°
2026-05-07 08:41 40.58734 31.82805 22948 ft 463 kts 109°
2026-05-07 08:41 40.58016 31.86868 22543 ft 452 kts 92°
2026-05-07 08:41 40.57920 31.90969 22177 ft 446 kts 88°
2026-05-07 08:42 40.57893 31.95027 21775 ft 442 kts 88°
2026-05-07 08:42 40.57866 31.99049 21393 ft 439 kts 88°
2026-05-07 08:42 40.57821 32.03049 21021 ft 436 kts 89°
2026-05-07 08:42 40.57760 32.07032 20651 ft 434 kts 89°
2026-05-07 08:43 40.57687 32.10961 20272 ft 426 kts 89°
2026-05-07 08:43 40.57609 32.14813 19942 ft 416 kts 89°
2026-05-07 08:43 40.57532 32.18576 19623 ft 407 kts 89°
2026-05-07 08:43 40.57456 32.22263 19308 ft 399 kts 89°
2026-05-07 08:44 40.57380 32.25880 18996 ft 392 kts 90°
2026-05-07 08:44 40.57128 32.29421 18663 ft 388 kts 103°
2026-05-07 08:44 40.56001 32.32606 18340 ft 384 kts 125°
2026-05-07 08:44 40.54192 32.35142 18023 ft 378 kts 142°
2026-05-07 08:45 40.51957 32.36891 17737 ft 371 kts 154°
2026-05-07 08:45 40.49651 32.38348 17458 ft 364 kts 155°
2026-05-07 08:45 40.47378 32.39744 17233 ft 359 kts 155°
2026-05-07 08:45 40.45114 32.41157 17199 ft 360 kts 154°
2026-05-07 08:46 40.42869 32.42587 17194 ft 358 kts 154°
2026-05-07 08:46 40.40629 32.44026 17196 ft 358 kts 154°
2026-05-07 08:46 40.38438 32.45580 17168 ft 359 kts 143°
2026-05-07 08:46 40.36725 32.47942 16946 ft 358 kts 125°
2026-05-07 08:47 40.35303 32.50605 16692 ft 356 kts 124°
2026-05-07 08:47 40.33893 32.53259 16363 ft 354 kts 124°
2026-05-07 08:47 40.32493 32.55845 16047 ft 350 kts 125°
2026-05-07 08:47 40.31080 32.58426 15723 ft 347 kts 125°
2026-05-07 08:48 40.29677 32.60975 15397 ft 343 kts 125°
2026-05-07 08:48 40.28285 32.63497 15074 ft 340 kts 125°
2026-05-07 08:48 40.26906 32.65997 14759 ft 337 kts 125°
2026-05-07 08:48 40.25543 32.68471 14447 ft 333 kts 126°
2026-05-07 08:49 40.24196 32.70912 14149 ft 330 kts 126°
2026-05-07 08:49 40.22852 32.73342 13814 ft 327 kts 126°
2026-05-07 08:49 40.21523 32.75744 13469 ft 325 kts 126°
2026-05-07 08:49 40.20327 32.78223 13130 ft 321 kts 111°
2026-05-07 08:50 40.19941 32.81050 12818 ft 316 kts 86°
2026-05-07 08:50 40.20433 32.83773 12501 ft 304 kts 64°
2026-05-07 08:50 40.21559 32.86025 12238 ft 291 kts 45°
2026-05-07 08:50 40.23083 32.87677 11995 ft 281 kts 36°
2026-05-07 08:51 40.24656 32.89154 11783 ft 276 kts 35°
2026-05-07 08:51 40.26214 32.90602 11567 ft 273 kts 34°
2026-05-07 08:51 40.27747 32.92038 11351 ft 269 kts 35°
2026-05-07 08:51 40.29257 32.93467 11137 ft 266 kts 35°
2026-05-07 08:52 40.30745 32.94883 10926 ft 263 kts 35°
2026-05-07 08:52 40.32217 32.96287 10675 ft 261 kts 35°
2026-05-07 08:52 40.33674 32.97679 10412 ft 260 kts 35°
2026-05-07 08:52 40.35137 32.99078 10154 ft 260 kts 35°
2026-05-07 08:53 40.36597 33.00473 9833 ft 260 kts 35°
2026-05-07 08:53 40.38070 33.01881 9469 ft 263 kts 35°
2026-05-07 08:53 40.39555 33.03303 9117 ft 265 kts 36°
2026-05-07 08:53 40.41052 33.04736 8752 ft 267 kts 36°
2026-05-07 08:54 40.42561 33.06183 8401 ft 270 kts 36°
2026-05-07 08:54 40.44086 33.07633 8042 ft 271 kts 36°
2026-05-07 08:54 40.45571 33.09159 7711 ft 272 kts 47°
2026-05-07 08:54 40.46517 33.11282 7406 ft 271 kts 76°
2026-05-07 08:55 40.46582 33.13706 7166 ft 265 kts 105°
2026-05-07 08:55 40.45774 33.15809 6973 ft 257 kts 134°
2026-05-07 08:55 40.44333 33.17084 6760 ft 249 kts 164°
2026-05-07 08:55 40.42663 33.17335 6676 ft 238 kts 182°
2026-05-07 08:56 40.41023 33.17243 6529 ft 233 kts 184°
2026-05-07 08:56 40.39445 33.17086 6407 ft 222 kts 186°
2026-05-07 08:56 40.37943 33.16897 6276 ft 214 kts 186°
2026-05-07 08:56 40.36470 33.16707 6162 ft 212 kts 186°
2026-05-07 08:57 40.34978 33.16512 6043 ft 217 kts 186°
2026-05-07 08:57 40.33498 33.16326 6001 ft 214 kts 186°
2026-05-07 08:57 40.32020 33.16135 5994 ft 214 kts 186°
2026-05-07 08:57 40.30534 33.15946 5990 ft 212 kts 187°
2026-05-07 08:58 40.29226 33.15335 5982 ft 195 kts 219°
2026-05-07 08:58 40.28197 33.14212 6006 ft 192 kts 215°
2026-05-07 08:58 40.27098 33.13248 5996 ft 188 kts 214°
2026-05-07 08:58 40.26022 33.12268 5989 ft 188 kts 216°
2026-05-07 08:59 40.24950 33.11256 5993 ft 191 kts 216°
2026-05-07 08:59 40.23887 33.10242 5981 ft 186 kts 216°
2026-05-07 08:59 40.22850 33.09376 5878 ft 171 kts 207°
2026-05-07 08:59 40.21803 33.08547 5346 ft 179 kts 218°
2026-05-07 09:00 40.20894 33.07491 5126 ft 169 kts 223°
2026-05-07 09:00 40.19992 33.06515 4735 ft 169 kts 216°
2026-05-07 09:00 40.19026 33.05641 4481 ft 164 kts 215°
2026-05-07 09:00 40.18126 33.04830 4330 ft 155 kts 217°
2026-05-07 09:01 40.17314 33.03999 4177 ft 147 kts 217°
2026-05-07 09:01 40.16454 33.03182 3854 ft 154 kts 218°
2026-05-07 09:01 40.15606 33.02347 3609 ft 153 kts 219°
2026-05-07 09:01 40.14759 33.01525 3371 ft 149 kts 218°
2026-05-07 09:02 40.13940 33.00733 3164 ft 143 kts 218°
2026-05-07 09:02 40.13221 33.00052 3133 ft 108 kts 215°
2026-05-07 09:02 40.12738 32.99579 3122 ft 66 kts 218°
2026-05-07 09:02 40.12498 32.99354 3114 ft 28 kts 216°
2026-05-07 09:03 40.12332 32.99233 3108 ft 27 kts 199°
2026-05-07 09:03 40.12181 32.99201 3104 ft 20 kts 185°
2026-05-07 09:03 40.12118 32.99192 3104 ft 8 kts 187°
2026-05-07 09:03 40.12062 32.99183 3103 ft 9 kts 187°
2026-05-07 09:04 40.11988 32.99165 3102 ft 13 kts 197°
2026-05-07 09:04 40.11898 32.99091 3100 ft 17 kts 219°
2026-05-07 09:04 40.11807 32.99053 3100 ft 14 kts 147°
2026-05-07 09:04 40.11732 32.99129 3098 ft 13 kts 148°
2026-05-07 09:05 40.11731 32.99235 3101 ft 13 kts 64°
2026-05-07 09:05 40.11750 32.99327 3103 ft 9 kts 114°
2026-05-07 09:05 40.11701 32.99345 3103 ft 4 kts 176°
2026-05-07 09:05 40.11695 32.99345 3103 ft 0 kts 176°